Flag for U.S.A. Weather past 2 weeks in Shreveport, Louisiana, U.S.A.

Now
89 °F

Scattered clouds.


Feels Like: 90 °F
Forecast: 64 / 82 °F
Wind: 5 mph from Northeast

Location: Shreveport Regional Airport

Current Time: Sep 21, 2014 at 7:36:29 PM

Latest Report: Sep 21, 2014 at 6:56 PM


Visibility: 10 mi

Pressure: 29.96 "Hg

Humidity: 43%

Dew point: 64 °F

Location of ShreveportLocation

Historic Weather in Shreveport — Graph

°F

Shreveport temperature yesterday

Maximum temperature yesterday: 92 °F (at 2:56 PM)
Minimum temperature yesterday: 69 °F (at 3:56 AM)
Average temperature yesterday: 79 °F

Past Weeks' High & Low Weather Summary

 TemperatureHumidityPressure
High95 °F (Sep 21, 3:56 PM)94% (Sep 8, 5:56 AM)30.24 "Hg (Sep 8, 5:56 AM)
Low61 °F (Sep 13, 7:56 AM)36% (Sep 21, 3:56 PM)29.80 "Hg (Sep 10, 5:56 PM)
Average79 °F73%29.99 "Hg
* Reported Sep 6 5:56 PM — Sep 21 5:56 PM, Shreveport, Weather by CustomWeather, © 2014

Note: Actual official high and low records may vary slightly from our data, if they occured in-between our weather recording intervals... More about our weather records

Advertising

Shreveport weather history for previous 24 hours

 ConditionsComfort  
Time TempWeatherWind HumidityBarometerVisibility
5:56 PM
Sep 21
91 °FScattered clouds.5 mph39%29.96 "Hg10 mi
4:56 PM92 °FScattered clouds.9 mph38%29.96 "Hg10 mi
3:56 PM95 °FScattered clouds.9 mph36%29.96 "Hg10 mi
2:56 PM92 °FScattered clouds.7 mph38%29.98 "Hg10 mi
1:56 PM93 °FScattered clouds.No wind37%30.01 "Hg10 mi
12:56 PM92 °FScattered clouds.8 mph41%30.03 "Hg10 mi
11:56 AM91 °FPassing clouds.7 mph42%30.05 "Hg10 mi
10:56 AM88 °FSunny.6 mph50%30.06 "Hg10 mi
9:56 AM85 °FSunny.5 mph55%30.06 "Hg10 mi
8:56 AM80 °FSunny.5 mph67%30.05 "Hg10 mi
7:56 AM71 °FClear.No wind90%30.04 "Hg7 mi
6:56 AM70 °FClear.No wind90%30.02 "Hg8 mi
5:56 AM69 °FClear.No wind87%30.01 "Hg9 mi
4:56 AM70 °FClear.No wind84%30.00 "Hg10 mi
3:56 AM70 °FClear.No wind87%29.99 "Hg10 mi
2:56 AM70 °FClear.No wind87%29.99 "Hg10 mi
1:56 AM71 °FClear.No wind84%29.99 "Hg10 mi
12:56 AM73 °FClear.No wind79%29.98 "Hg10 mi
11:56 PM
Sep 20
74 °FPassing clouds.No wind76%29.99 "Hg10 mi
10:56 PM77 °FPassing clouds.No wind69%29.99 "Hg10 mi
9:56 PM79 °FClear.No wind62%29.98 "Hg10 mi
8:56 PM78 °FClear.No wind66%29.95 "Hg10 mi
7:56 PM81 °FSunny.No wind56%29.93 "Hg10 mi
Weather by CustomWeather, © 2014

See weather overviewHow to use our weather pages